Simultaneous Nadir Overpasses (SNOs) Predictions

Prediction of SNOs between NPP and TERRA Satellite Orbit:

Table of predicted SNOs for the next 14.0 days since TLE Epoch: 10/11/2014
Index Date (NPP) Time (NPP) Lat,Lon (NPP) SZA (NPP ) Date (TERRA) Time (TERRA) Lat,Lon (TERRA) SZA (TERRA ) Distance(km) Time Diff (sec)
1 10/12/2014 04:53:16 69.28, 106.20 76.56 10/12/2014 04:54:27 69.30, 106.25 76.58 2.25 71
2 10/12/2014 05:43:57 -69.15, -86.29 103.56 10/12/2014 05:43:58 -69.13, -86.34 103.59 2.85 1
3 10/12/2014 06:34:39 68.91, 81.35 76.22 10/12/2014 06:33:26 68.97, 81.10 76.26 11.95 73
4 10/14/2014 21:10:14 69.21,-137.93 77.49 10/14/2014 21:10:57 69.22,-137.98 77.50 2.09 43
5 10/14/2014 22:00:56 -69.12, 29.50 102.59 10/14/2014 22:00:27 -69.11, 29.52 102.60 1.69 29
6 10/17/2014 12:36:40 -69.90, 169.51 100.86 10/17/2014 12:37:49 -69.83, 171.08 100.90 60.37 69
7 10/17/2014 13:27:13 69.19, -22.15 78.46 10/17/2014 13:27:25 69.21, -22.10 78.48 3.22 12
8 10/17/2014 14:17:54 -69.05, 145.36 101.67 10/17/2014 14:16:56 -69.06, 145.33 101.67 1.47 58
9 10/20/2014 04:53:27 -69.25, -73.78 100.53 10/20/2014 04:54:27 -69.24, -73.83 100.53 2.00 60
10 10/20/2014 05:44:11 69.13, 93.70 79.37 10/20/2014 05:43:54 69.12, 93.67 79.36 1.47 17
11 10/20/2014 06:34:43 -68.50, -98.14 101.23 10/20/2014 06:33:33 -68.52, -99.46 101.25 53.70 70
12 10/22/2014 21:10:25 -69.24, 41.99 99.58 10/22/2014 21:10:53 -69.23, 42.05 99.59 2.52 28
13 10/22/2014 22:01:09 69.13,-150.54
